Terug naar catalogus

QIANFAN-55

ActiefCommunicatiePO
NORAD 62785·PAYLOAD·🇨🇳 China

Gelanceerd Jan 23, 2025 vanaf Taiyuan Satellite Launch Center

Loading…

Volgende Passages (komende 24 uur)

TLE

VersSource: Space-Track

Epoch: Sep 14, 2026, 21:10 UTC

1 62785U 25016A   26257.88255882  .00000032  00000-0  30707-4 0  9996
2 62785  88.9669  74.5431 0015496 270.6035  89.3341 13.51024610 84472

Volg QIANFAN-55 in realtime met AllMySat

Download on the App Store